Regional Weather Roundup
Issued by NWS

Home | Current Version | Previous Version | Graphics & Text | Print | Product List | Glossary On
Versions: 1 2 3 4 5 6 7 8 9 10 11 12 13 14 15 16 17 18 19 20 21 22 23 24 25 26 27 28 29 30 31 32 33 34 35 36 37 38 39 40 41 42 43 44 45 46 47 48 49 50
000
ASUS43 KOAX 120802
RWRNE

WEATHER ROUNDUP FOR NEBRASKA
NATIONAL WEATHER SERVICE OMAHA NE
200 AM CST TUE DEC 12 2017

NOTES: SATELLITE DATA IS BEING USED TO AUGMENT CLOUD COVER ABOVE
       12000 FEET.
       "FAIR" INDICATES FEW OR NO CLOUDS BELOW 12,000 FEET WITH NO
       SIGNIFICANT WEATHER AND/OR OBSTRUCTIONS TO VISIBILITY.


NEZ001>004-019>022-054>056-120900-
NEBRASKA PANHANDLE

CITY           SKY/WX    TMP DP  RH WIND       PRES   REMARKS
SCOTTSBLUFF    CLOUDY    24  14  65 NW8       30.39F WCI  15
ALLIANCE       CLOUDY     8   5  87 W6        30.36F WCI  -2
CHADRON        CLOUDY    15  11  83 SW5       30.37F WCI   8
GORDON         FAIR      21  18  88 CALM      30.35F
KIMBALL        CLOUDY    20  11  67 W7        30.39F WCI  12
SIDNEY         CLOUDY    21  11  65 NW12      30.39F WCI   9
$$

NEZ057>060-069>072-079>082-120900-
SOUTHWEST NEBRASKA

CITY           SKY/WX    TMP DP  RH WIND       PRES   REMARKS
NORTH PLATTE   CLOUDY    17  15  92 NW6       30.39F WCI   9
IMPERIAL       CLOUDY    23  16  74 W6        30.41F WCI  16
LEXINGTON      CLEAR     25  21  85 W9        30.38F WCI  16
MCCOOK         CLOUDY    23  19  85 W13       30.41F WCI  11
OGALLALA       CLOUDY    16  12  84 W7        30.41S WCI   6
$$

NEZ005>010-023>029-035>040-094-120900-
NORTH CENTRAL NEBRASKA

CITY           SKY/WX    TMP DP  RH WIND       PRES   REMARKS
VALENTINE      CLOUDY    29  24  82 W8        30.35S WCI  21
AINSWORTH      CLOUDY    35  29  79 NW8       30.33F WCI  29
BROKEN BOW     CLOUDY    38  26  62 N17       30.35F WCI  28
O`NEILL        CLOUDY    20  20 100 W5        30.35F WCI  13
ORD            CLOUDY    32  29  88 NW6       30.35F WCI  26
THEDFORD       CLOUDY    25  23  89 W8        30.37F WCI  17
$$

NEZ041-046>049-061>064-073>077-083>087-120900-
SOUTH CENTRAL NEBRASKA

CITY           SKY/WX    TMP DP  RH WIND       PRES   REMARKS
GRAND ISLAND   CLEAR     26  24  92 N5        30.38S WCI  20
AURORA         CLEAR     22  20  89 NW5       30.37S WCI  16
HASTINGS       CLEAR     26  23  88 NW8       30.38R WCI  18
HEBRON         CLEAR     28  22  79 N3        30.39S
HOLDREGE       CLOUDY    33  27  76 W12       30.37F WCI  25
KEARNEY        CLOUDY    34  28  79 NW5       30.38S WCI  30
YORK           CLEAR     25  23  93 N5        30.37F WCI  19
$$

NEZ011>018-030>034-042>045-120900-
NORTHEAST NEBRASKA

CITY           SKY/WX    TMP DP  RH WIND       PRES   REMARKS
NORFOLK        CLOUDY    19  16  88 NW8       30.36S WCI   9
ALBION         CLOUDY    21  19  92 NW3       30.36F
BLAIR          CLEAR     21  16  82 NW7       30.35R WCI  12
COLUMBUS       CLEAR     23  18  81 N9        30.37F WCI  13
FREMONT        CLEAR     19  15  86 NW9       30.37S WCI   7
TEKAMAH        CLEAR     18  12  77 NW8       30.37R WCI   8
WAYNE          CLOUDY    18  15  90 NW8       30.36S WCI   7
$$

NEZ050>053-065>068-078-088>093-120900-
SOUTHEAST NEBRASKA

CITY           SKY/WX    TMP DP  RH WIND       PRES   REMARKS
LINCOLN        CLEAR     25  18  74 N12       30.39R WCI  14
OMAHA EPPLEY   CLEAR     20  12  71 N14       30.36R WCI   7
BEATRICE       CLEAR     23  20  89 NW10      30.37R WCI  12
FALLS CITY     CLEAR     25  17  72 NW9       30.34R WCI  15
NEBRASKA CITY  CLEAR     23  18  80 NW12      30.34S WCI  12
PLATTSMOUTH    CLEAR     22  16  76 NW12      30.34S WCI  11
$$

NEZ044-045-051>053-067-120900-
OMAHA AREA

CITY           SKY/WX    TMP DP  RH WIND       PRES   REMARKS
OMAHA EPPLEY   CLEAR     20  12  71 N14       30.36R WCI   7
BLAIR          CLEAR     21  16  82 NW7       30.35R WCI  12
FREMONT        CLEAR     19  15  86 NW9       30.37S WCI   7
MILLARD        CLEAR     24  18  77 NW8       30.37R WCI  15
OFFUTT AFB     CLEAR     23  13  63 NW7G18    30.35R WCI  15
PLATTSMOUTH    CLEAR     22  16  76 NW12      30.34S WCI  11
WAHOO          FAIR      21  15  76 NW10      30.37R WCI  10
$$




USA.gov is the U.S. government's official web portal to all federal, state and local government web resources and services.